When you browse on this site, cookies collect data to enhance your experience and personalize the content and advertising you see.
Visit our Privacy Policy to learn more. By continuing to use the site, you agree to this use of cookies and data.
  • In United Kingdom
  • List of Countries
  • For 7 days
  • Water Temperature
  • Satellite Maps
  • Weather Map
  • Weather Widgets
  • user-avatar
    Login

    Hourly Weather Cuiaba

    Today, 24 January, Thursday

    Time Temperature Precipitation Wind Pressure Humidity
    00:00 +29°C° 0.1 mm 1 mps 739 mmHg 69%
    01:00 +29°C° 0.1 mm 1 mps 739 mmHg 72%
    02:00 +26°C° 0.1 mm 0 mps 739 mmHg 74%
    03:00 +28°C° 0.1 mm 1 mps 739 mmHg 76%
    04:00 +28°C° 0.1 mm 1 mps 739 mmHg 78%
    05:00 +27°C° 0.1 mm 1 mps 739 mmHg 80%
    06:00 +29°C° 0.1 mm 1 mps 739 mmHg 74%
    07:00 +30°C° 0.1 mm 1 mps 740 mmHg 68%
    08:00 +32°C° 0.1 mm 1 mps 741 mmHg 62%
    09:00 +35°C° 0 mm 1 mps 740 mmHg 53%
    10:00 +39°C° 0 mm 1 mps 740 mmHg 44%
    11:00 +42°C° 0 mm 1 mps 740 mmHg 34%
    12:00 +41°C° 0 mm 1 mps 739 mmHg 37%
    13:00 +40°C° 0 mm 1 mps 739 mmHg 39%
    14:00 +37°C° 0 mm 1 mps 738 mmHg 42%
    15:00 +37°C° 0 mm 1 mps 738 mmHg 42%
    16:00 +37°C° 0 mm 1 mps 737 mmHg 42%
    17:00 +38°C° 0 mm 2 mps 737 mmHg 42%
    18:00 +35°C° 0 mm 1 mps 737 mmHg 46%
    19:00 +34°C° 0 mm 1 mps 738 mmHg 50%
    20:00 +30°C° 0 mm 0 mps 738 mmHg 54%
    21:00 +30°C° 0 mm 0 mps 738 mmHg 56%
    22:00 +29°C° 0 mm 0 mps 738 mmHg 58%
    23:00 +30°C° 0 mm 1 mps 738 mmHg 60%

    Tomorrow, 25 January, Friday

    Time Temperature Precipitation Wind Pressure Humidity
    00:00 +30°C° 0.1 mm 1 mps 738 mmHg 62%
    01:00 +30°C° 0.1 mm 2 mps 738 mmHg 64%
    02:00 +29°C° 0.1 mm 3 mps 738 mmHg 66%
    03:00 +28°C° 0.8 mm 3 mps 738 mmHg 73%
    04:00 +27°C° 0.8 mm 2 mps 738 mmHg 80%
    05:00 +26°C° 0.8 mm 2 mps 738 mmHg 87%
    06:00 +28°C° 0.1 mm 2 mps 739 mmHg 82%
    07:00 +29°C° 0.1 mm 2 mps 739 mmHg 76%
    08:00 +30°C° 0.1 mm 2 mps 740 mmHg 71%
    09:00 +34°C° 0 mm 2 mps 740 mmHg 60%
    10:00 +36°C° 0 mm 3 mps 740 mmHg 49%
    11:00 +39°C° 0 mm 3 mps 740 mmHg 39%
    12:00 +39°C° 0 mm 2 mps 739 mmHg 39%
    13:00 +39°C° 0 mm 2 mps 738 mmHg 39%
    14:00 +39°C° 0 mm 1 mps 737 mmHg 39%
    15:00 +36°C° 0 mm 1 mps 737 mmHg 43%
    16:00 +35°C° 0 mm 1 mps 737 mmHg 48%
    17:00 +34°C° 0 mm 1 mps 737 mmHg 52%
    18:00 +32°C° 0.3 mm 1 mps 737 mmHg 58%
    19:00 +31°C° 0.3 mm 2 mps 737 mmHg 64%
    20:00 +30°C° 0.3 mm 2 mps 738 mmHg 70%
    21:00 +29°C° 0.1 mm 2 mps 738 mmHg 70%
    22:00 +29°C° 0.1 mm 2 mps 738 mmHg 70%
    23:00 +29°C° 0.1 mm 2 mps 739 mmHg 70%

    Day after tomorrow, 26 January, Saturday

    Time Temperature Precipitation Wind Pressure Humidity
    00:00 +29°C° 0 mm 2 mps 738 mmHg 71%
    01:00 +29°C° 0 mm 2 mps 738 mmHg 73%
    02:00 +28°C° 0 mm 2 mps 738 mmHg 74%
    03:00 +28°C° 0 mm 2 mps 738 mmHg 75%
    04:00 +27°C° 0 mm 2 mps 738 mmHg 77%
    05:00 +27°C° 0 mm 2 mps 738 mmHg 78%
    06:00 +28°C° 0 mm 2 mps 739 mmHg 73%
    07:00 +29°C° 0 mm 2 mps 739 mmHg 69%
    08:00 +30°C° 0 mm 3 mps 740 mmHg 64%
    09:00 +34°C° 0 mm 3 mps 740 mmHg 57%
    10:00 +36°C° 0 mm 3 mps 739 mmHg 49%
    11:00 +38°C° 0 mm 3 mps 739 mmHg 42%
    12:00 +38°C° 0 mm 2 mps 739 mmHg 41%
    13:00 +38°C° 0 mm 2 mps 738 mmHg 40%
    14:00 +38°C° 0 mm 2 mps 737 mmHg 40%
    15:00 +37°C° 0 mm 1 mps 737 mmHg 41%
    16:00 +37°C° 0 mm 1 mps 737 mmHg 41%
    17:00 +34°C° 0 mm 0 mps 736 mmHg 42%
    18:00 +33°C° 0.1 mm 0 mps 737 mmHg 47%
    19:00 +33°C° 0.1 mm 1 mps 737 mmHg 52%
    20:00 +31°C° 0.1 mm 1 mps 737 mmHg 57%
    21:00 +30°C° 1.2 mm 1 mps 738 mmHg 64%
    22:00 +28°C° 1.2 mm 2 mps 738 mmHg 72%
    23:00 +27°C° 1.2 mm 2 mps 738 mmHg 80%

    27 January, Sunday

    Time Temperature Precipitation Wind Pressure Humidity
    00:00 +26°C° 1.7 mm 2 mps 738 mmHg 84%
    01:00 +26°C° 1.7 mm 2 mps 738 mmHg 87%
    02:00 +26°C° 1.7 mm 2 mps 737 mmHg 91%
    03:00 +26°C° 0 mm 2 mps 737 mmHg 91%
    04:00 +26°C° 0 mm 2 mps 737 mmHg 90%
    05:00 +26°C° 0 mm 2 mps 737 mmHg 90%
    06:00 +27°C° 0 mm 3 mps 738 mmHg 84%
    07:00 +28°C° 0 mm 3 mps 739 mmHg 78%
    08:00 +29°C° 0 mm 4 mps 739 mmHg 72%
    09:00 +31°C° 1.1 mm 3 mps 739 mmHg 69%
    10:00 +33°C° 1.1 mm 3 mps 739 mmHg 66%
    11:00 +34°C° 1.1 mm 3 mps 739 mmHg 63%
    12:00 +34°C° 3.3 mm 2 mps 738 mmHg 64%
    13:00 +32°C° 3.3 mm 2 mps 737 mmHg 65%
    14:00 +32°C° 3.3 mm 1 mps 737 mmHg 66%
    15:00 +32°C° 0.8 mm 2 mps 737 mmHg 64%
    16:00 +33°C° 0.8 mm 3 mps 736 mmHg 63%
    17:00 +33°C° 0.8 mm 4 mps 736 mmHg 61%
    18:00 +30°C° 0.6 mm 3 mps 737 mmHg 68%
    19:00 +29°C° 0.6 mm 2 mps 738 mmHg 76%
    20:00 +27°C° 0.6 mm 2 mps 739 mmHg 83%
    21:00 +27°C° 0.7 mm 2 mps 739 mmHg 84%
    22:00 +26°C° 0.7 mm 3 mps 739 mmHg 85%
    23:00 +26°C° 0.7 mm 4 mps 739 mmHg 87%

    28 January, Monday

    Time Temperature Precipitation Wind Pressure Humidity
    00:00 +26°C° 0.2 mm 3 mps 739 mmHg 86%
    01:00 +26°C° 0.2 mm 2 mps 738 mmHg 86%
    02:00 +26°C° 0.2 mm 2 mps 738 mmHg 86%
    03:00 +26°C° 0 mm 2 mps 738 mmHg 85%
    04:00 +26°C° 0 mm 3 mps 738 mmHg 83%
    05:00 +26°C° 0 mm 3 mps 739 mmHg 82%
    06:00 +26°C° 0 mm 4 mps 739 mmHg 79%
    07:00 +27°C° 0 mm 4 mps 740 mmHg 76%
    08:00 +28°C° 0 mm 5 mps 741 mmHg 74%
    09:00 +29°C° 0.1 mm 5 mps 741 mmHg 68%
    10:00 +32°C° 0.1 mm 6 mps 741 mmHg 62%
    11:00 +33°C° 0.1 mm 7 mps 741 mmHg 56%
    12:00 +34°C° 0.8 mm 6 mps 741 mmHg 55%
    13:00 +34°C° 0.8 mm 6 mps 740 mmHg 54%
    14:00 +34°C° 0.8 mm 6 mps 739 mmHg 53%
    15:00 +33°C° 0.1 mm 5 mps 739 mmHg 55%
    16:00 +33°C° 0.1 mm 4 mps 739 mmHg 57%
    17:00 +31°C° 0.1 mm 3 mps 739 mmHg 59%
    18:00 +29°C° 0.3 mm 3 mps 740 mmHg 64%
    19:00 +28°C° 0.3 mm 2 mps 740 mmHg 69%
    20:00 +27°C° 0.3 mm 2 mps 741 mmHg 75%
    21:00 +27°C° 0.3 mm 1 mps 741 mmHg 77%
    22:00 +26°C° 0.3 mm 1 mps 742 mmHg 79%
    23:00 +26°C° 0.3 mm 1 mps 742 mmHg 81%

    29 January, Tuesday

    Time Temperature Precipitation Wind Pressure Humidity
    00:00 +26°C° 0 mm 1 mps 741 mmHg 81%
    01:00 +26°C° 0 mm 1 mps 741 mmHg 81%
    02:00 +26°C° 0 mm 1 mps 741 mmHg 81%
    03:00 +23°C° 0 mm 0 mps 741 mmHg 81%
    04:00 +23°C° 0 mm 0 mps 741 mmHg 81%
    05:00 +23°C° 0 mm 0 mps 741 mmHg 81%
    06:00 +24°C° 0 mm 0 mps 742 mmHg 79%
    07:00 +27°C° 0 mm 1 mps 742 mmHg 76%
    08:00 +28°C° 0 mm 1 mps 743 mmHg 73%
    09:00 +30°C° 0 mm 1 mps 743 mmHg 64%
    10:00 +32°C° 0 mm 2 mps 743 mmHg 56%
    11:00 +35°C° 0 mm 2 mps 743 mmHg 47%
    12:00 +35°C° 0 mm 2 mps 742 mmHg 45%
    13:00 +36°C° 0 mm 2 mps 741 mmHg 43%
    14:00 +36°C° 0 mm 1 mps 740 mmHg 41%
    15:00 +35°C° 0 mm 1 mps 740 mmHg 45%
    16:00 +34°C° 0 mm 1 mps 740 mmHg 49%
    17:00 +33°C° 0 mm 1 mps 739 mmHg 52%
    18:00 +31°C° 0 mm 1 mps 740 mmHg 57%
    19:00 +30°C° 0 mm 1 mps 740 mmHg 62%
    20:00 +28°C° 0 mm 1 mps 740 mmHg 67%
    21:00 +28°C° 0 mm 1 mps 740 mmHg 69%
    22:00 +27°C° 0 mm 1 mps 741 mmHg 70%
    23:00 +27°C° 0 mm 1 mps 741 mmHg 72%
    Show more